Regional Weather Roundup
Issued by NWS State College, PA

Home | Current Version | Previous Version | Text Only | Print | Product List | Glossary On
Versions: 1 2 3 4 5 6 7 8 9 10 11 12 13 14 15 16 17 18 19 20 21 22 23 24 25 26 27 28 29 30 31 32 33 34 35 36 37 38 39 40 41 42 43 44 45 46 47 48 49 50
000
ASUS41 KCTP 220803
RWRCTP

REGIONAL WEATHER ROUNDUP
NATIONAL WEATHER SERVICE STATE COLLEGE PA
400 AM EDT FRI MAY 22 2015

Note: "fair" indicates few or no clouds below 12,000 feet with no
significant weather and/or obstructions to visibility.

* = STATION THAT DOES NOT REPORT PRECIPITATION /E.G. RAIN...SNOW...ETC/
    THUNDER OR FOG.

PAZ002>004-007>009-013>016-020>023-029>032-220900-
WESTERN PENNSYLVANIA

CITY           SKY/WX    TMP DP  RH WIND       PRES   REMARKS
ERIE           PTCLDY    52  39  61 SW7       29.97R
MEADVILLE      MOCLDY    45  36  70 SW3       29.99S
FRANKLIN*      PTCLDY    43  34  70 SW9       30.01S
NEW CASTLE     FAIR      43  39  85 CALM      30.03S
BEAVER COUNTY  NOT AVBL
BUTLER*        CLEAR     41  37  87 W5        30.05R
PITTSBURGH INT CLEAR     45  39  79 W7        30.03S
PITTSBURGH     CLEAR     45  36  70 W12       30.03R
INDIANA*       CLOUDY    43  43 100 VRB3      30.06R FOG
LATROBE        CLEAR     45  45 100 S6        30.06R
WASHINGTON CO* CLEAR     41  37  87 SW5       30.07S
$$

PAZ004>006-010>012-017>019-024>028-033>037-041-042-045-046-049>053-220900-
CENTRAL PENNSYLVANIA

CITY           SKY/WX    TMP DP  RH WIND       PRES   REMARKS
BRADFORD       CLEAR     42  33  70 VRB3      29.95S
DUBOIS         CLEAR     41  37  86 SW9       29.98R
CLEARFIELD     CLEAR     42  40  92 S7        29.98S
JOHNSTOWN      CLEAR     42  38  85 SW8       30.00S
ALTOONA        CLEAR     45  38  76 SW8       30.00S
STATE COLLEGE  CLEAR     44  40  83 SW7       29.98R
WILLIAMSPORT   CLEAR     48  44  86 W7        29.93S
SELINSGROVE    CLEAR     44  41  89 CALM      29.95S
FT INDIANTOWN  PTCLDY    53  41  65 W14G20    29.94R
CAPITAL CITY   MOCLDY    52  41  66 W10       29.96R
HARRISBURG     MOCLDY    54  43  66 W12       29.95R
YORK           MOCLDY    50  43  77 W7        29.96R
$$

PAZ038>040-043-044-047-048-054-055-060>062-067>071-220900-
EASTERN PENNSYLVANIA

CITY           SKY/WX    TMP DP  RH WIND       PRES   REMARKS
SCRANTON       CLEAR     46  42  86 SW5       29.90S
MOUNT POCONO   CLEAR     43  40  89 NW6       29.88S
ALLENTOWN      CLEAR     47  42  83 W6        29.90R
QUAKERTOWN*    SUNNY     50  45  81 CALM      29.91R
READING        CLOUDY    51  44  77 W7        29.92R
LANCASTER      CLOUDY    50  45  83 NW8       29.93R
COATESVILLE    SUNNY     48  48 100 NW10      29.92S
POTTSTOWN      CLEAR     49  45  86 NW3       29.92R
BLUE BELL      PTCLDY    52  45  76 CALM      29.89S
DOYLESTOWN     PTCLDY    49  44  83 NW6       29.89R
WILLOW GROVE   NOT AVBL
NORTH PHILA    PTCLDY    51  44  77 NW8       29.91R
PHILADELPHIA   PTCLDY    53  46  77 NW8       29.90S
$$



USA.gov is the U.S. government's official web portal to all federal, state and local government web resources and services.